EW8974 Weather Reports


Display with metric or nautical units.
time (UTC)temp
F
wind
direction
speed
MPH
gust
MPH
rain 1hr
in
rain 24hr
in
rain mn
in
humidity
%
barometer
mb
20260505001547 76 219 5.0 15.0 0.00 0.00 0.00 66 1000.9
20260505001036 77 219 7.0 15.0 0.00 0.00 0.00 65 1000.9
20260505000536 77 250 4.0 14.0 0.00 0.00 0.00 65 1000.9
20260505000041 77 239 5.0 12.0 0.00 0.00 0.00 65 1000.9
20260504235536 77 208 4.0 14.0 0.00 0.00 0.00 65 1000.8
20260504235036 77 227 5.0 15.0 0.00 0.00 0.00 64 1000.9
20260504234536 78 185 5.0 15.0 0.00 0.00 0.00 64 1000.9
20260504234035 78 241 3.0 14.0 0.00 0.00 0.00 64 1000.9
20260504233538 78 165 5.0 16.0 0.00 0.00 0.00 64 1001.0
20260504233036 78 202 9.0 16.0 0.00 0.00 0.00 62 1001.1
20260504232535 78 227 7.0 15.0 0.00 0.00 0.00 62 1001.1
20260504232033 78 219 6.0 19.0 0.00 0.00 0.00 62 1001.0
20260504231546 78 228 7.0 15.0 0.00 0.00 0.00 62 1001.2
20260504231033 78 213 7.0 15.0 0.00 0.00 0.00 62 1001.2
20260504230533 78 210 5.0 15.0 0.00 0.00 0.00 62 1001.3
20260504230033 78 191 5.0 15.0 0.00 0.00 0.00 61 1001.4
20260504225531 79 205 7.0 18.0 0.00 0.00 0.00 61 1001.5
20260504225031 79 176 9.0 18.0 0.00 0.00 0.00 59 1001.5
20260504224536 79 114 6.0 15.0 0.00 0.00 0.00 60 1001.5
20260504224032 79 290 7.0 16.0 0.00 0.00 0.00 60 1001.6
20260504223534 79 175 7.0 16.0 0.00 0.00 0.00 60 1001.6
20260504223031 79 145 6.0 14.0 0.00 0.00 0.00 61 1001.6
20260504222531 79 266 6.0 15.0 0.00 0.00 0.00 61 1001.7
20260504222031 79 200 7.0 15.0 0.00 0.00 0.00 60 1001.7
20260504221531 79 269 3.0 12.0 0.00 0.00 0.00 61 1001.5
20260504221029 79 231 5.0 15.0 0.00 0.00 0.00 61 1001.6
20260504220528 79 248 8.0 19.0 0.00 0.00 0.00 61 1001.8
20260504220032 79 217 7.0 17.0 0.00 0.00 0.00 60 1001.8
20260504215529 80 213 5.0 21.0 0.00 0.00 0.00 59 1001.9
20260504215030 80 222 7.0 17.0 0.00 0.00 0.00 59 1001.8
20260504214527 80 267 9.0 17.0 0.00 0.00 0.00 59 1002.0
20260504214030 81 244 6.0 17.0 0.00 0.00 0.00 58 1002.0
20260504213528 80 158 6.0 17.0 0.00 0.00 0.00 59 1002.1
20260504213027 81 218 7.0 19.0 0.00 0.00 0.00 58 1002.1
20260504212524 81 250 9.0 19.0 0.00 0.00 0.00 58 1002.2
20260504212024 81 226 4.0 16.0 0.00 0.00 0.00 59 1002.3
20260504211527 80 160 6.0 16.0 0.00 0.00 0.00 58 1002.3
20260504211023 80 259 5.0 18.0 0.00 0.00 0.00 59 1002.4
20260504210522 81 233 8.0 18.0 0.00 0.00 0.00 57 1002.5
20260504210022 81 199 8.0 18.0 0.00 0.00 0.00 57 1002.7
20260504205520 81 227 7.0 18.0 0.00 0.00 0.00 58 1002.7
20260504205020 81 205 8.0 18.0 0.00 0.00 0.00 56 1002.8
20260504204521 82 225 6.0 17.0 0.00 0.00 0.00 56 1002.8
20260504204019 81 141 4.0 16.0 0.00 0.00 0.00 58 1002.8
20260504203518 81 228 8.0 16.0 0.00 0.00 0.00 57 1003.0
20260504203025 81 236 7.0 13.0 0.00 0.00 0.00 57 1003.2
20260504202519 80 153 7.0 17.0 0.00 0.00 0.00 58 1003.3
20260504202017 81 243 9.0 17.0 0.00 0.00 0.00 57 1003.3
20260504201517 80 233 5.0 18.0 0.00 0.00 0.00 58 1003.7
20260504201016 81 255 10.0 18.0 0.00 0.00 0.00 55 1003.6
20260504200514 81 113 4.0 12.0 0.00 0.00 0.00 57 1003.8
20260504200014 81 253 5.0 12.0 0.00 0.00 0.00 57 1004.0
20260504195513 81 175 6.0 16.0 0.00 0.00 0.00 56 1004.1
20260504195012 80 319 7.0 21.0 0.00 0.00 0.00 56 1004.1
20260504194525 80 240 5.0 21.0 0.00 0.00 0.00 59 1004.2
20260504194011 80 220 7.0 15.0 0.00 0.00 0.00 57 1004.2
20260504193512 80 214 8.0 15.0 0.00 0.00 0.00 57 1004.1
20260504193015 80 199 5.0 16.0 0.00 0.00 0.00 58 1004.2
20260504192509 80 238 8.0 16.0 0.00 0.00 0.00 57 1004.2
20260504192008 80 226 8.0 15.0 0.00 0.00 0.00 56 1004.4
20260504191507 80 153 4.0 14.0 0.00 0.00 0.00 58 1004.4
20260504191007 80 232 6.0 12.0 0.00 0.00 0.00 56 1004.6
20260504190506 80 215 5.0 14.0 0.00 0.00 0.00 59 1004.5
20260504190005 79 114 5.0 14.0 0.00 0.00 0.00 57 1004.6
20260504185504 80 233 6.0 14.0 0.00 0.00 0.00 57 1004.8
20260504185004 80 218 4.0 14.0 0.00 0.00 0.00 58 1004.7
20260504184509 79 194 4.0 14.0 0.00 0.00 0.00 58 1004.8
20260504184002 78 259 4.0 17.0 0.00 0.00 0.00 59 1004.8
20260504183502 79 237 10.0 17.0 0.00 0.00 0.00 56 1004.9
20260504183002 79 278 5.0 13.0 0.00 0.00 0.00 57 1004.8
20260504182603 78 283 3.0 15.0 0.00 0.00 0.00 58 1005.1
20260504182058 78 233 6.0 15.0 0.00 0.00 0.00 59 1005.1
20260504181603 78 137 5.0 15.0 0.00 0.00 0.00 58 1005.2
20260504181057 78 133 4.0 15.0 0.00 0.00 0.00 59 1005.2
20260504180557 77 246 8.0 16.0 0.00 0.00 0.00 59 1005.3
20260504180146 77 223 5.0 16.0 0.00 0.00 0.00 59 1005.5
20260504175554 77 171 8.0 17.0 0.00 0.00 0.00 57 1005.6
20260504175056 77 241 5.0 17.0 0.00 0.00 0.00 59 1005.6
20260504174552 77 185 8.0 17.0 0.00 0.00 0.00 58 1005.6
20260504174054 76 254 7.0 16.0 0.00 0.00 0.00 58 1005.7
20260504173553 77 216 7.0 16.0 0.00 0.00 0.00 57 1005.8
20260504173059 76 198 3.0 13.0 0.00 0.00 0.00 60 1005.7
20260504172549 76 251 7.0 13.0 0.00 0.00 0.00 57 1005.9
20260504172048 76 192 6.0 13.0 0.00 0.00 0.00 58 1006.1
20260504171548 76 201 6.0 13.0 0.00 0.00 0.00 57 1005.9
20260504171047 76 203 3.0 13.0 0.00 0.00 0.00 59 1006.2
20260504170545 75 205 6.0 13.0 0.00 0.00 0.00 58 1006.3
20260504151020 68 205 5.0 19.0 0.00 0.00 0.00 69 1007.5
20260504150520 68 205 9.0 19.0 0.00 0.00 0.00 69 1007.6
20260504141013 65 229 5.0 15.0 0.00 0.00 0.00 74 1008.0
20260504140509 65 194 5.0 12.0 0.00 0.00 0.00 74 1007.9
20260504130504 61 207 1.0 9.0 0.00 0.00 0.00 79 1008.0
20260504110552 58 233 4.0 10.0 0.00 0.00 0.00 83 1007.3
20260504100546 59 209 1.0 5.0 0.00 0.00 0.00 80 1007.8
20260504081530 61 191 4.0 11.0 0.00 0.00 0.00 74 1008.1
20260504081130 61 248 2.0 10.0 0.00 0.00 0.00 74 1008.2
20260504080529 61 199 2.0 9.0 0.00 0.00 0.00 73 1008.4
20260504050509 63 204 1.0 7.0 0.00 0.00 0.00 66 1010.1
20260504050004 63 200 3.0 7.0 0.00 0.00 0.00 65 1010.1
20260504045504 63 237 2.0 6.0 0.00 0.00 0.00 66 1010.2
20260504045004 63 200 2.0 6.0 0.00 0.00 0.00 66 1010.2
20260504044504 64 218 1.0 6.0 0.00 0.00 0.00 66 1010.3
20260504044005 64 182 2.0 6.0 0.00 0.00 0.00 65 1010.3
20260504043504 64 140 1.0 6.0 0.00 0.00 0.00 65 1010.2
20260504043004 64 169 2.0 7.0 0.00 0.00 0.00 65 1010.3
20260504042504 64 201 2.0 7.0 0.00 0.00 0.00 65 1010.3
20260504042002 64 236 2.0 7.0 0.00 0.00 0.00 65 1010.3
20260504041503 64 244 1.0 7.0 0.00 0.00 0.00 65 1010.3
20260504041002 64 203 2.0 6.0 0.00 0.00 0.00 65 1010.4
20260504040502 64 248 1.0 6.0 0.00 0.00 0.00 64 1010.4
20260504040007 64 212 2.0 6.0 0.00 0.00 0.00 64 1010.4
20260504035502 64 242 2.0 6.0 0.00 0.00 0.00 64 1010.3
20260504035001 64 242 1.0 5.0 0.00 0.00 0.00 63 1010.4
20260504034502 64 186 1.0 5.0 0.00 0.00 0.00 63 1010.2
20260504034001 65 229 1.0 4.0 0.00 0.00 0.00 62 1010.3
20260504033501 65 234 1.0 6.0 0.00 0.00 0.00 62 1010.2
20260504033001 65 217 2.0 7.0 0.00 0.00 0.00 61 1010.3
20260504032503 65 229 1.0 7.0 0.00 0.00 0.00 61 1010.3
20260504032002 65 233 1.0 4.0 0.00 0.00 0.00 60 1010.4
20260504031629 65 160 0.0 3.0 0.00 0.00 0.00 60 1010.3
20260504031501 65 160 0.0 3.0 0.00 0.00 0.00 60 1010.3
20260504031103 66 238 1.0 4.0 0.00 0.00 0.00 59 1010.3
20260504030559 66 229 1.0 4.0 0.00 0.00 0.00 58 1010.2
20260504030059 66 205 1.0 5.0 0.00 0.00 0.00 58 1010.1
20260504025559 66 113 1.0 6.0 0.00 0.00 0.00 57 1010.1
20260504025102 66 251 2.0 7.0 0.00 0.00 0.00 57 1010.1
20260504024601 66 213 2.0 7.0 0.00 0.00 0.00 57 1010.2
20260504024058 66 136 1.0 4.0 0.00 0.00 0.00 56 1010.1
20260504023559 67 174 0.0 7.0 0.00 0.00 0.00 57 1010.2
20260504023059 67 258 2.0 7.0 0.00 0.00 0.00 56 1010.1
20260504022559 67 241 1.0 5.0 0.00 0.00 0.00 57 1010.1
20260504022101 67 210 1.0 4.0 0.00 0.00 0.00 56 1010.1
20260504021610 67 200 1.0 4.0 0.00 0.00 0.00 56 1010.1
20260504021059 67 209 2.0 5.0 0.00 0.00 0.00 56 1010.1
20260504020601 68 224 1.0 6.0 0.00 0.00 0.00 56 1010.2
20260504020106 68 172 1.0 6.0 0.00 0.00 0.00 56 1010.2
20260504015557 68 207 1.0 4.0 0.00 0.00 0.00 55 1010.1
20260504015057 68 191 1.0 4.0 0.00 0.00 0.00 55 1010.1
20260504014557 69 237 0.0 5.0 0.00 0.00 0.00 54 1009.9
20260504014056 69 190 1.0 7.0 0.00 0.00 0.00 54 1009.9
20260504013557 69 169 3.0 7.0 0.00 0.00 0.00 53 1010.0
20260504013105 69 214 1.0 6.0 0.00 0.00 0.00 52 1009.9
20260504012558 70 219 1.0 6.0 0.00 0.00 0.00 52 1009.9
20260504012056 70 249 0.0 6.0 0.00 0.00 0.00 51 1009.8
20260504011558 70 250 0.0 4.0 0.00 0.00 0.00 50 1009.9
20260504011055 71 240 1.0 6.0 0.00 0.00 0.00 49 1010.0
20260504010555 71 187 1.0 5.0 0.00 0.00 0.00 48 1009.9
20260504010105 72 240 1.0 6.0 0.00 0.00 0.00 47 1010.0
20260504005555 73 215 2.0 9.0 0.00 0.00 0.00 45 1010.0
20260504005055 73 193 3.0 9.0 0.00 0.00 0.00 44 1009.9
20260504004557 74 227 3.0 9.0 0.00 0.00 0.00 44 1009.8
20260504004055 75 168 3.0 9.0 0.00 0.00 0.00 42 1009.9
20260504003554 76 238 2.0 9.0 0.00 0.00 0.00 42 1009.9
20260504003055 77 219 4.0 7.0 0.00 0.00 0.00 40 1009.8
20260504002554 77 221 4.0 7.0 0.00 0.00 0.00 40 1010.0
20260504002054 77 219 2.0 7.0 0.00 0.00 0.00 40 1010.1